Flag for Canada Weather past 2 weeks in Montreal, Quebec, Canada

Now
48 °F

Light rain. Low clouds.


Feels Like: 43 °F
Forecast: 46 / 53 °F
Wind: 14 mph from Southwest

Location: Montreal - Pierre Elliot Trudeau International Aiport

Current Time: Apr 21, 2015 at 10:00:25 AM

Latest Report: Apr 21, 2015 at 9:00 AM


Visibility: 5 mi

Pressure: 29.51 "Hg

Humidity: 100%

Dew point: 48 °F

Location of MontrealLocation

Historic Weather in Montreal — Graph

°F

Montreal temperature yesterday

Maximum temperature yesterday: 50 °F (at 8:00 AM)
Minimum temperature yesterday: 41 °F (at 12:00 PM)
Average temperature yesterday: 47 °F

Past Weeks' High & Low Weather Summary

 TemperatureHumidityPressure
High72 °F (Apr 13, 2:00 PM)100% (Apr 6, 6:00 PM)30.50 "Hg (Apr 6, 6:00 PM)
Low27 °F (Apr 7, 2:00 AM)11% (Apr 15, 5:00 PM)29.45 "Hg (Apr 10, 3:51 PM)
Average45 °F57%30.08 "Hg
* Reported Apr 6 9:00 AM — Apr 21 9:00 AM, Montreal, Weather by CustomWeather, © 2015

Note: Actual official high and low records may vary slightly from our data, if they occured in-between our weather recording intervals... More about our weather records

Advertising

Montreal weather history for previous 24 hours

 ConditionsComfort  
Time TempWeatherWind HumidityBarometerVisibility
9:00 AM
Tue, Apr 21
48 °FLight rain. Low clouds.14 mph100%29.51 "Hg5 mi
8:00 AM48 °FLight rain. Mostly cloudy.12 mph94%29.50 "Hg2 mi
7:56 AM48 °FLight rain. Mostly cloudy.12 mph94%29.50 "Hg2 mi
7:00 AM48 °FLight rain. Mostly cloudy.13 mph94%29.51 "Hg8 mi
6:00 AM48 °FLight rain. Overcast.10 mph87%29.51 "Hg10 mi
5:00 AM48 °FLight rain. Overcast.12 mph87%29.53 "Hg10 mi
4:00 AM48 °FMostly cloudy.10 mph87%29.54 "Hg15 mi
3:00 AM48 °FLight rain. Overcast.10 mph87%29.57 "Hg15 mi
2:00 AM50 °FPassing clouds.8 mph76%29.60 "Hg15 mi
1:00 AM50 °FPassing clouds.10 mph76%29.61 "Hg15 mi
12:49 AM50 °FPassing clouds.13 mph76%29.61 "Hg15 mi
12:00 AM50 °FLight rain. Mostly cloudy.15 mph76%29.63 "Hg15 mi
11:00 PM
Mon, Apr 20
50 °FPassing clouds.12 mph71%29.65 "Hg15 mi
10:00 PM50 °FPartly cloudy.9 mph71%29.68 "Hg15 mi
9:00 PM50 °FPartly cloudy.15 mph71%29.69 "Hg15 mi
8:00 PM50 °FMostly cloudy.15 mph71%29.70 "Hg15 mi
7:00 PM50 °FCloudy.14 mph71%29.71 "Hg15 mi
6:00 PM50 °FMostly cloudy.15 mph71%29.74 "Hg15 mi
5:00 PM48 °FLight rain. Mostly cloudy.16 mph76%29.75 "Hg30 mi
4:00 PM46 °FLight rain. Mostly cloudy.12 mph76%29.78 "Hg12 mi
3:00 PM45 °FLight rain. Mostly cloudy.10 mph81%29.80 "Hg15 mi
2:00 PM43 °FLight rain. Mostly cloudy.17 mph81%29.83 "Hg15 mi
1:00 PM41 °FLight rain. More clouds than sun.14 mph87%29.85 "Hg15 mi
12:00 PM41 °FLight rain. Cloudy.22 mph87%29.90 "Hg12 mi
11:00 AM43 °FLight rain. More clouds than sun.15 mph81%29.92 "Hg8 mi
10:00 AM45 °FLight rain. More clouds than sun.14 mph76%29.93 "Hg8 mi
Weather by CustomWeather, © 2015

See weather overviewHow to use our weather pages